Simultaneous Nadir Overpasses (SNOs) Predictions

Prediction of SNOs between GOES-17 and NOAA-20 Satellite Orbit:

Table of predicted SNOs for the next 14.0 days since TLE Epoch: 10/12/2024
Index Date Time (GOES-17) GOES-17 Lat,Lon NOAA-20 Lat,Lon Distance(km) Time Diff (sec)
1 10/12/2024 20:09:43 0.01,-104.74 0.78,-101.29 392.96 80
2 10/14/2024 08:31:32 -0.01,-104.75 0.39,-106.57 207.43 80
3 10/15/2024 08:10:08 -0.01,-104.75 -0.60,-102.04 309.22 80
4 10/16/2024 20:32:05 0.01,-104.76 -0.56,-107.35 294.57 80
5 10/17/2024 20:16:00 0.01,-104.77 0.44,-102.82 222.57 80
6 10/19/2024 08:37:49 -0.01,-104.79 0.75,-108.09 376.92 80
7 10/20/2024 08:16:24 -0.01,-104.79 -0.26,-103.56 139.61 80
8 10/21/2024 20:38:22 0.02,-104.79 -0.87,-108.88 465.44 80
9 10/22/2024 20:22:17 0.03,-104.80 0.15,-104.35 51.55 80
10 10/25/2024 08:25:20 -0.03,-104.83 0.04,-105.09 30.13 80
